Location: Saint Louis
(38.6270°N, 90.1980°W)
Time: 20:25:25

ISS - Pass Details

Date: 15 October 2013
Orbit: 399 x 408 km, 51.6° (Epoch: 23 October)

Event Time Altitude Azimuth Distance (km) Brightness Sun altitude
Rises 18:35:24 0° 316° (NW) 2,419 1.2 -3.4°
Reaches altitude 10° 18:38:19 10° 343° (NNW) 1,573 -0.2 -3.9°
Maximum altitude 18:40:17 14° 17° (NNE) 1,357 -0.9 -4.3°
Drops below altitude 10° 18:42:17 10° 51° (NE) 1,604 -0.8 -4.7°
Enters shadow 18:43:44 - 66° (ENE) 1,988 -0.5 -5.0°
